Location: Byszew
(52.1813°N, 19.2693°E)
Time: 02:56:55
(UTC+00:00)

Cosmos 1844 - Pass Details

Date: 14 June 2021
Orbit: 823 x 867 km, 70.9° (Epoch: 03 August)

Event Time Altitude Azimuth Distance (km) Brightness Sun altitude
Rises 21:47:04 0° 323° (NW) 3,371 8.1 -13.5°
Reaches altitude 10° 21:49:46 10° 312° (NW) 2,435 7.0 -13.6°
Maximum altitude 21:54:29 29° 255° (WSW) 1,481 4.9 -13.8°
Enters shadow 21:58:15 14° 203° (SSW) 2,140 5.3 -13.9°
